Retour au catalogue

CZ-4C DEB

ActifLEO
NORAD 43404·DEBRIS·🇨🇳 China

Lancé Nov 25, 2012 depuis Jiuquan Satellite Launch Center

Loading…

Prochains Passages (prochaines 24 heures)

TLE

FraisSource: Space-Track

Époque: Sep 14, 2026, 05:40 UTC

1 43404U 12066G   26257.23665696 -.00000047  00000-0  10744-3 0  9996
2 43404  63.3569 135.4420 0176886 347.1823  12.4709 12.93184040604894

Suivez CZ-4C DEB en temps réel avec AllMySat

Download on the App Store